Flag for U.S.A. Weather past 2 weeks in Kailua-Kona, Hawaii, U.S.A.

Now
78 °F

Scattered clouds.


Feels Like: 80 °F
Forecast: 64 / 75 °F
Wind: 7 mph from West

Location: Keahole Airport

Current Time: Dec 26, 2014 at 6:29:25 PM

Latest Report: Dec 26, 2014 at 4:53 PM


Visibility: 10 mi

Pressure: 29.77 "Hg

Humidity: 64%

Dew point: 65 °F

Location of Kailua-KonaLocation

Historic Weather in Kailua-Kona — Graph

°F

Kailua-Kona temperature yesterday

Maximum temperature yesterday: 81 °F (at 1:53 PM)
Minimum temperature yesterday: 71 °F (at 4:53 AM)
Average temperature yesterday: 75 °F

Past Weeks' High & Low Weather Summary

 TemperatureHumidityPressure
High87 °F (Dec 13, 11:53 AM)90% (Dec 23, 7:53 AM)30.14 "Hg (Dec 23, 7:53 AM)
Low66 °F (Dec 26, 6:53 AM)40% (Dec 13, 3:53 PM)29.73 "Hg (Dec 24, 2:53 PM)
Average76 °F67%29.96 "Hg
* Reported Dec 11 4:53 PM — Dec 26 4:53 PM, Kailua-Kona, Weather by CustomWeather, © 2014

Note: Actual official high and low records may vary slightly from our data, if they occured in-between our weather recording intervals... More about our weather records

Advertising

Kailua-Kona weather history for previous 24 hours

 ConditionsComfort  
Time TempWeatherWind HumidityBarometerVisibility
4:53 PM
Dec 26
78 °FScattered clouds.7 mph64%29.77 "Hg10 mi
3:53 PM80 °FSunny.10 mph62%29.77 "Hg10 mi
2:53 PM79 °FSunny.8 mph67%29.76 "Hg10 mi
1:53 PM80 °FScattered clouds.9 mph56%29.78 "Hg10 mi
12:53 PM80 °FSunny.10 mph56%29.80 "Hg10 mi
11:53 AM80 °FScattered clouds.8 mph56%29.83 "Hg10 mi
10:53 AM79 °FSunny.7 mph60%29.86 "Hg10 mi
9:53 AM78 °FSunny.5 mph62%29.86 "Hg10 mi
8:53 AM76 °FSunny.3 mph64%29.85 "Hg10 mi
7:53 AM68 °FSunny.6 mph82%29.84 "Hg10 mi
6:53 AM66 °FClear.6 mph84%29.82 "Hg10 mi
5:53 AM67 °FPassing clouds.6 mph85%29.81 "Hg10 mi
4:53 AM67 °FPassing clouds.5 mph81%29.80 "Hg10 mi
3:53 AM67 °FOvercast.5 mph81%29.80 "Hg10 mi
2:53 AM67 °FPassing clouds.6 mph81%29.80 "Hg10 mi
1:53 AM67 °FClear.7 mph81%29.80 "Hg10 mi
12:53 AM72 °FPassing clouds.6 mph68%29.82 "Hg10 mi
11:53 PM
Dec 25
71 °FClear.5 mph73%29.82 "Hg10 mi
10:53 PM73 °FLight rain. Overcast.5 mph71%29.83 "Hg10 mi
9:53 PM74 °FPassing clouds.3 mph69%29.83 "Hg10 mi
8:53 PM74 °FPassing clouds.No wind69%29.82 "Hg10 mi
8:26 PM75 °FPassing clouds.3 mph65%29.81 "Hg10 mi
8:19 PM75 °FPassing clouds.3 mph65%29.80 "Hg10 mi
7:53 PM76 °FPassing clouds.No wind67%29.80 "Hg10 mi
6:53 PM76 °FClear.5 mph67%29.78 "Hg10 mi
Weather by CustomWeather, © 2014

See weather overviewHow to use our weather pages